D0852 Weather Reports


Display with metric or nautical units.
time (UTC)temp
F
wind
direction
speed
MPH
gust
MPH
rain 1hr
in
rain 24hr
in
rain mn
in
humidity
%
barometer
mb
20210412210704 32 263 0.0 0.0 0.00 0.58 0.45 84 1026.4
20210412210327 32 263 0.0 0.0 0.00 0.59 0.45 84 1026.4
20210412210032 32 263 0.0 0.0 0.00 0.60 0.45 84 1026.3
20210412205842 33 263 0.0 0.0 0.00 0.61 0.45 84 1026.3
20210412204742 33 263 0.0 0.0 0.00 0.61 0.45 84 1026.4
20210412204220 33 263 0.0 0.0 0.00 0.61 0.45 83 1026.4
20210412203708 33 263 0.0 0.0 0.00 0.61 0.45 84 1026.4
20210412203221 33 263 0.0 0.0 0.00 0.61 0.45 83 1026.3
20210412202944 33 263 0.0 0.0 0.00 0.61 0.45 83 1026.4
20210412202830 33 263 0.0 0.0 0.00 0.61 0.45 83 1026.4
20210412201737 34 263 0.0 0.0 0.00 0.61 0.45 83 1026.4
20210412201216 34 263 0.0 0.0 0.00 0.61 0.45 83 1026.4
20210412200717 34 263 0.0 0.0 0.00 0.61 0.45 83 1026.3
20210412200339 34 263 0.0 0.0 0.00 0.61 0.45 83 1026.5
20210412200149 34 263 0.0 0.0 0.00 0.61 0.45 83 1026.5
20210412195912 34 263 0.0 0.0 0.00 0.61 0.45 83 1026.5
20210412194930 34 263 0.0 0.0 0.00 0.61 0.45 82 1026.5
20210412194206 34 263 0.0 0.0 0.00 0.61 0.45 82 1026.6
20210412193706 35 263 0.0 0.0 0.00 0.61 0.45 82 1026.8
20210412193210 35 263 0.0 0.0 0.00 0.61 0.45 81 1026.8
20210412192928 35 263 0.0 0.0 0.00 0.61 0.45 81 1026.6
20210412192833 35 263 0.0 0.0 0.00 0.61 0.45 81 1026.6
20210412191708 35 263 0.0 0.0 0.00 0.61 0.45 81 1026.6
20210412191208 36 263 0.0 0.0 0.00 0.61 0.45 80 1026.5
20210412190711 36 263 0.0 0.0 0.00 0.61 0.45 80 1026.5
20210412190423 36 263 0.0 0.0 0.00 0.61 0.45 80 1026.4
20210412190141 36 263 0.0 2.0 0.00 0.61 0.45 80 1026.4
20210412185900 36 263 0.0 2.0 0.00 0.61 0.45 80 1026.5
20210412184704 36 263 0.0 2.0 0.00 0.62 0.45 80 1026.3
20210412184219 36 263 0.0 1.0 0.00 0.62 0.45 80 1026.4
20210412183708 37 263 0.0 1.0 0.00 0.62 0.45 79 1026.4
20210412183241 37 263 0.0 3.0 0.00 0.62 0.45 79 1026.3
20210412183052 37 263 0.0 3.0 0.00 0.62 0.45 79 1026.3
20210412182757 37 263 0.0 2.0 0.00 0.62 0.45 79 1026.3
20210412181715 37 150 0.0 0.0 0.00 0.62 0.45 79 1026.3
20210412181212 37 301 0.0 1.0 0.00 0.62 0.45 79 1026.3
20210412180724 38 301 0.0 1.0 0.00 0.62 0.45 78 1026.3
20210412180151 38 301 0.0 1.0 0.00 0.62 0.45 77 1026.2
20210412175922 38 300 0.0 1.0 0.00 0.62 0.45 77 1026.3
20210412174708 38 301 0.0 4.0 0.00 0.62 0.45 76 1026.2
20210412174210 38 301 1.0 5.0 0.00 0.62 0.45 75 1026.2
20210412173705 38 301 1.0 5.0 0.00 0.62 0.45 74 1026.2
20210412173205 38 295 1.0 6.0 0.00 0.62 0.45 73 1026.2
20210412173032 39 321 2.0 6.0 0.00 0.62 0.45 71 1026.2
20210412172833 39 321 2.0 5.0 0.00 0.62 0.45 71 1026.2
20210412171705 39 349 2.0 5.0 0.00 0.62 0.45 69 1026.2
20210412171218 40 61 2.0 5.0 0.00 0.62 0.45 67 1026.0
20210412170914 40 71 2.0 5.0 0.00 0.62 0.45 65 1026.0
20210412170542 41 38 2.0 5.0 0.00 0.62 0.45 63 1026.0
20210412170047 41 327 1.0 4.0 0.00 0.62 0.45 60 1025.9
20210412165714 41 69 1.0 4.0 0.00 0.62 0.45 59 1025.9
20210412164703 41 79 1.0 4.0 0.00 0.62 0.45 58 1025.9
20210412164217 41 103 1.0 3.0 0.00 0.62 0.45 59 1025.8
20210412163707 42 294 0.0 3.0 0.00 0.62 0.45 58 1025.8
20210412163223 42 293 0.0 3.0 0.00 0.62 0.45 58 1025.8
20210412162937 42 288 0.0 3.0 0.00 0.62 0.45 58 1025.7
20210412162707 42 287 1.0 3.0 0.00 0.62 0.45 56 1025.7
20210412161704 43 288 0.0 4.0 0.00 0.62 0.45 56 1025.8
20210412161218 43 287 0.0 4.0 0.00 0.62 0.45 58 1025.7
20210412160710 43 288 1.0 4.0 0.00 0.62 0.45 59 1025.8
20210412160225 43 288 1.0 4.0 0.00 0.62 0.45 58 1025.6
20210412160034 42 67 0.0 3.0 0.00 0.62 0.45 63 1025.6
20210412155758 42 106 0.0 3.0 0.00 0.62 0.45 63 1025.6
20210412154910 42 144 1.0 4.0 0.00 0.62 0.45 64 1025.6
20210412154206 43 101 1.0 4.0 0.00 0.62 0.45 63 1025.6
20210412153710 43 307 1.0 4.0 0.00 0.62 0.45 62 1025.6
20210412153231 43 126 0.0 3.0 0.00 0.62 0.45 65 1025.6
20210412152954 43 52 0.0 3.0 0.00 0.62 0.45 65 1025.5
20210412152743 42 292 0.0 3.0 0.00 0.62 0.45 66 1025.6
20210412151717 42 292 0.0 3.0 0.00 0.62 0.45 66 1025.4
20210412151218 42 292 0.0 3.0 0.00 0.62 0.45 69 1025.5
20210412150705 41 292 0.0 3.0 0.00 0.62 0.45 70 1025.7
20210412150258 41 292 1.0 6.0 0.00 0.62 0.45 70 1025.6
20210412150027 41 292 1.0 6.0 0.00 0.62 0.45 68 1025.5
20210412145839 41 315 1.0 6.0 0.00 0.62 0.45 67 1025.5
20210412144807 42 290 1.0 5.0 0.00 0.62 0.45 67 1025.4
20210412144209 42 300 2.0 5.0 0.00 0.62 0.45 66 1025.4
20210412143704 42 300 2.0 5.0 0.00 0.62 0.45 64 1025.6
20210412143306 43 293 1.0 4.0 0.00 0.62 0.45 64 1025.5
20210412143027 43 299 1.0 5.0 0.00 0.62 0.45 66 1025.5
20210412142713 43 300 2.0 5.0 0.00 0.62 0.45 64 1025.4
20210412141703 42 295 2.0 5.0 0.00 0.62 0.45 67 1025.2
20210412141210 41 309 1.0 5.0 0.00 0.62 0.45 70 1025.2
20210412140704 41 107 1.0 5.0 0.00 0.62 0.45 69 1025.4
20210412140240 41 14 1.0 5.0 0.00 0.62 0.45 69 1025.3
20210412140055 40 99 1.0 5.0 0.00 0.62 0.45 68 1025.4
20210412135726 40 68 1.0 5.0 0.00 0.62 0.45 68 1025.3
20210412134715 40 28 1.0 4.0 0.00 0.62 0.45 68 1025.4
20210412134215 41 102 1.0 6.0 0.00 0.62 0.45 69 1025.4
20210412133717 41 102 1.0 6.0 0.00 0.62 0.45 67 1025.4
20210412133213 41 67 1.0 6.0 0.00 0.62 0.45 66 1025.4
20210412132832 41 57 1.0 5.0 0.01 0.62 0.45 68 1025.4
20210412132452 41 49 1.0 5.0 0.01 0.62 0.45 68 1025.2
20210412131707 42 337 1.0 3.0 0.01 0.62 0.45 69 1025.0
20210412131207 42 117 1.0 3.0 0.01 0.62 0.45 70 1025.2
20210412130724 41 274 1.0 4.0 0.01 0.62 0.45 71 1025.1
20210412130215 41 269 1.0 4.0 0.01 0.62 0.45 72 1024.9
20210412125942 40 41 0.0 4.0 0.02 0.62 0.45 74 1025.1
20210412124723 39 29 1.0 4.0 0.02 0.62 0.45 74 1025.0
20210412124215 39 91 1.0 3.0 0.02 0.62 0.45 74 1025.1
20210412123707 39 88 0.0 3.0 0.02 0.62 0.45 75 1025.1
20210412123231 39 89 0.0 5.0 0.03 0.62 0.45 77 1025.0
20210412122833 38 88 1.0 5.0 0.02 0.61 0.44 76 1024.9
20210412121721 39 321 0.0 3.0 0.03 0.61 0.44 76 1024.8
20210412121209 39 350 1.0 3.0 0.04 0.61 0.44 77 1024.8
20210412120707 39 344 0.0 3.0 0.04 0.61 0.44 78 1024.7
20210412120218 39 53 0.0 4.0 0.03 0.61 0.43 79 1024.6
20210412115918 38 342 0.0 4.0 0.04 0.61 0.43 82 1024.4
20210412114919 38 65 0.0 3.0 0.04 0.60 0.43 84 1024.4
20210412114220 38 65 1.0 3.0 0.04 0.60 0.43 84 1024.6
20210412113708 37 57 1.0 4.0 0.03 0.59 0.42 84 1024.3
20210412113210 37 76 1.0 4.0 0.04 0.59 0.42 85 1024.3
20210412112841 37 336 1.0 3.0 0.04 0.59 0.42 85 1024.3
20210412112554 37 331 0.0 3.0 0.05 0.59 0.42 87 1024.2
20210412111705 37 83 0.0 1.0 0.04 0.58 0.41 87 1024.1
20210412111209 37 88 0.0 1.0 0.04 0.57 0.40 87 1024.2
20210412110705 36 89 0.0 1.0 0.04 0.57 0.40 87 1024.3
20210412110209 36 87 0.0 0.0 0.04 0.57 0.39 88 1024.2
20210412105940 36 24 0.0 0.0 0.04 0.57 0.39 88 1024.3
20210412105821 36 18 0.0 0.0 0.05 0.57 0.39 88 1024.3
20210412104735 36 18 0.0 0.0 0.04 0.56 0.39 88 1024.2
20210412104206 36 18 0.0 0.0 0.04 0.56 0.39 88 1024.3
20210412103704 36 18 0.0 2.0 0.05 0.56 0.39 88 1024.2
20210412103208 36 11 0.0 2.0 0.04 0.55 0.38 88 1024.3
20210412102945 36 11 0.0 2.0 0.05 0.55 0.38 88 1024.2
20210412102726 36 346 0.0 4.0 0.04 0.54 0.37 88 1024.1
20210412101719 36 347 0.0 4.0 0.05 0.54 0.37 89 1024.1
20210412101213 36 347 1.0 4.0 0.04 0.54 0.36 88 1024.0
20210412100711 36 345 1.0 4.0 0.04 0.54 0.36 88 1024.0
20210412100217 36 336 0.0 2.0 0.04 0.53 0.35 89 1023.9
20210412100042 36 336 0.0 3.0 0.05 0.53 0.35 89 1023.9
20210412095822 35 336 0.0 3.0 0.04 0.52 0.35 89 1023.7
20210412094706 35 336 0.0 3.0 0.04 0.52 0.35 89 1023.6
20210412094213 35 336 0.0 3.0 0.04 0.51 0.34 89 1023.6
20210412093710 35 336 0.0 3.0 0.04 0.51 0.34 89 1023.4
20210412093214 35 336 0.0 2.0 0.05 0.51 0.34 89 1023.5
20210412092829 35 336 0.0 2.0 0.04 0.50 0.33 89 1023.4
20210412092543 35 336 0.0 4.0 0.05 0.50 0.33 89 1023.1
20210412091704 35 336 0.0 4.0 0.04 0.50 0.32 89 1023.1
20210412091219 35 336 0.0 4.0 0.05 0.50 0.32 89 1023.0
20210412090716 35 336 0.0 4.0 0.04 0.49 0.31 89 1023.0
20210412090246 35 350 0.0 4.0 0.05 0.49 0.31 89 1023.0
20210412090031 35 350 1.0 4.0 0.05 0.48 0.31 89 1023.0
20210412085730 35 348 1.0 4.0 0.06 0.48 0.31 89 1022.9
20210412084715 34 350 0.0 4.0 0.06 0.47 0.30 89 1022.8
20210412084209 34 0 0.0 3.0 0.06 0.47 0.30 89 1022.7
20210412083704 34 79 0.0 0.0 0.06 0.47 0.30 89 1022.6
20210412083220 34 79 0.0 2.0 0.06 0.46 0.29 89 1022.7
20210412082926 34 79 0.0 2.0 0.06 0.46 0.29 89 1022.7
20210412082654 34 79 0.0 3.0 0.05 0.46 0.28 89 1022.5
20210412081705 34 102 1.0 3.0 0.04 0.45 0.28 89 1022.6
20210412081209 34 113 0.0 0.0 0.04 0.45 0.28 89 1022.5
20210412080708 34 0 0.0 0.0 0.04 0.44 0.27 89 1022.4
20210412080212 34 0 0.0 0.0 0.03 0.43 0.26 89 1022.4
20210412075848 34 0 0.0 0.0 0.03 0.43 0.26 89 1022.2
20210412075525 34 0 0.0 0.0 0.02 0.43 0.25 89 1022.4
20210412074704 34 0 0.0 0.0 0.02 0.42 0.24 89 1022.2
20210412074217 34 0 0.0 1.0 0.02 0.42 0.24 89 1022.2
20210412073708 34 0 0.0 2.0 0.01 0.41 0.24 89 1022.1
20210412073209 34 0 0.0 2.0 0.01 0.41 0.24 89 1022.0
20210412072941 34 0 0.0 2.0 0.01 0.41 0.24 89 1022.1
20210412072819 33 0 0.0 2.0 0.01 0.41 0.24 89 1022.1
20210412071720 33 0 0.0 2.0 0.01 0.41 0.24 89 1021.9
20210412071221 33 0 0.0 2.0 0.01 0.41 0.24 89 1021.8
20210412070710 33 0 0.0 1.0 0.00 0.40 0.23 89 1021.7
20210412070224 33 0 0.0 1.0 0.00 0.40 0.23 89 1021.6
20210412065834 33 0 0.0 2.0 0.00 0.40 0.23 89 1021.5
20210412065622 33 0 0.0 2.0 0.00 0.40 0.23 89 1021.3
20210412064714 33 0 0.0 2.0 0.00 0.40 0.23 89 1021.2
20210412064212 33 0 0.0 1.0 0.00 0.40 0.23 89 1021.2
20210412063715 33 0 0.0 2.0 0.00 0.40 0.23 89 1021.2
20210412063224 33 0 0.0 2.0 0.01 0.40 0.23 89 1021.2
20210412062907 33 0 0.0 0.0 0.01 0.40 0.23 89 1020.9
20210412061709 33 0 0.0 2.0 0.01 0.40 0.23 89 1020.8
20210412061219 33 0 0.0 2.0 0.01 0.40 0.23 89 1020.7
20210412060759 33 0 0.0 1.0 0.01 0.40 0.23 89 1020.6
20210412060217 33 0 0.0 1.0 0.01 0.40 0.23 88 1020.5
20210412055903 33 0 0.0 1.0 0.01 0.40 0.23 88 1020.3
20210412055533 33 0 0.0 2.0 0.01 0.40 0.23 88 1020.3
20210412054707 33 0 0.0 2.0 0.01 0.40 0.23 88 1020.0
20210412054222 33 355 0.0 2.0 0.01 0.40 0.23 88 1019.8
20210412053705 33 355 0.0 4.0 0.00 0.39 0.22 88 1019.5
20210412053222 33 355 0.0 4.0 0.00 0.39 0.22 88 1019.5
20210412052847 34 336 1.0 3.0 0.00 0.39 0.22 88 1019.3
20210412051705 34 46 0.0 4.0 0.00 0.39 0.22 88 1019.2
20210412051218 34 311 1.0 4.0 0.01 0.39 0.22 88 1019.1
20210412050707 34 310 1.0 3.0 0.01 0.39 0.22 88 1019.2
20210412050300 33 90 1.0 4.0 0.01 0.39 0.22 88 1018.8
20210412045850 34 98 1.0 4.0 0.01 0.39 0.22 88 1018.8
20210412044733 33 321 0.0 5.0 0.01 0.39 0.22 88 1018.7
20210412044210 33 322 0.0 5.0 0.01 0.39 0.22 88 1018.7
20210412043708 33 319 0.0 5.0 0.01 0.39 0.22 88 1018.7
20210412043428 34 317 0.0 4.0 0.01 0.39 0.22 88 1018.4
20210412043042 34 312 1.0 4.0 0.01 0.39 0.22 88 1018.3
20210412042738 34 311 1.0 4.0 0.01 0.39 0.22 88 1018.1
20210412041709 34 34 0.0 5.0 0.01 0.39 0.22 88 1018.2
20210412041205 34 97 0.0 5.0 0.00 0.39 0.21 88 1018.1
20210412040707 34 308 0.0 5.0 0.00 0.39 0.21 88 1017.9
20210412040205 34 17 0.0 4.0 0.00 0.39 0.21 88 1018.0
20210412035859 34 23 1.0 4.0 0.00 0.39 0.21 88 1017.9
20210412035522 34 319 0.0 3.0 0.00 0.39 0.21 88 1017.7
20210412034709 34 350 1.0 4.0 0.00 0.39 0.21 88 1017.5
20210412034215 34 350 1.0 4.0 0.01 0.39 0.21 88 1017.3
20210412033705 34 327 0.0 2.0 0.01 0.39 0.21 88 1017.3
20210412033229 34 304 0.0 4.0 0.01 0.39 0.21 88 1017.4
20210412032913 34 304 0.0 4.0 0.01 0.39 0.21 88 1017.3
20210412032542 34 304 1.0 4.0 0.01 0.39 0.21 88 1016.9
20210412031712 34 304 1.0 3.0 0.02 0.39 0.21 88 1017.0
20210412031205 34 313 0.0 2.0 0.02 0.39 0.21 88 1016.9
20210412030709 34 320 0.0 5.0 0.02 0.39 0.21 88 1016.9
20210412030213 34 319 0.0 5.0 0.02 0.39 0.21 88 1016.8
20210412025856 34 319 1.0 5.0 0.02 0.39 0.21 88 1016.6
20210412025620 34 346 1.0 3.0 0.02 0.39 0.21 88 1016.4
20210412024706 34 294 1.0 3.0 0.02 0.38 0.20 88 1016.6
20210412024217 34 294 1.0 3.0 0.02 0.38 0.20 88 1016.5
20210412023706 34 294 0.0 3.0 0.02 0.38 0.20 88 1016.4
20210412023219 34 294 0.0 3.0 0.02 0.38 0.20 88 1016.4
20210412022932 34 294 0.0 3.0 0.03 0.38 0.20 88 1016.3
20210412022746 34 294 0.0 3.0 0.04 0.38 0.20 88 1016.3
20210412021704 34 294 0.0 2.0 0.03 0.37 0.20 88 1016.3
20210412021231 34 294 0.0 2.0 0.04 0.37 0.20 88 1016.3
20210412020704 34 294 0.0 3.0 0.04 0.37 0.20 88 1016.3
20210412020254 34 294 1.0 3.0 0.05 0.37 0.20 88 1016.3
20210412015820 35 294 1.0 4.0 0.06 0.37 0.20 88 1016.2
20210412015444 35 294 0.0 4.0 0.05 0.36 0.19 87 1016.1
20210412014705 35 294 0.0 4.0 0.06 0.36 0.19 87 1016.0
20210412014208 35 294 0.0 3.0 0.06 0.35 0.18 88 1015.9
20210412013706 35 291 0.0 4.0 0.06 0.35 0.18 88 1015.5
20210412013321 35 291 1.0 4.0 0.06 0.35 0.17 87 1015.4
20210412013103 36 291 1.0 4.0 0.06 0.35 0.17 87 1015.4
20210412012650 36 291 1.0 4.0 0.06 0.34 0.17 87 1015.7
20210412011709 36 349 1.0 6.0 0.05 0.33 0.16 87 1015.5
20210412011218 36 349 1.0 6.0 0.05 0.33 0.16 87 1015.4
20210412010711 37 328 1.0 6.0 0.05 0.32 0.15 87 1015.2
20210412010209 37 348 2.0 6.0 0.05 0.32 0.15 87 1015.1
20210412004946 38 277 1.0 5.0 0.03 0.31 0.13 88 1015.2
20210412004205 38 18 1.0 5.0 0.02 0.30 0.13 88 1015.0
20210412003724 38 54 1.0 5.0 0.02 0.29 0.12 88 1014.7
20210412003000 39 69 1.0 6.0 0.01 0.28 0.11 88 1014.4
20210412001704 39 61 2.0 6.0 0.01 0.28 0.11 88 1014.3
20210412001224 39 75 1.0 5.0 0.01 0.28 0.11 88 1014.3
20210412000704 40 90 1.0 6.0 0.01 0.28 0.10 88 1014.2
20210412000218 40 71 1.0 6.0 0.01 0.28 0.10 87 1014.1
20210411235923 40 65 2.0 6.0 0.02 0.28 0.10 88 1013.9
20210411235713 40 92 2.0 5.0 0.02 0.28 0.10 88 1013.9
20210411234707 40 117 1.0 6.0 0.03 0.28 0.10 88 1013.9
20210411234220 40 27 2.0 6.0 0.03 0.28 0.10 87 1013.8
20210411233704 40 29 2.0 6.0 0.04 0.28 0.10 87 1013.7
20210411233258 40 79 3.0 10.0 0.05 0.28 0.10 88 1013.7
20210411233058 41 95 3.0 10.0 0.05 0.28 0.10 87 1013.6
20210411232841 41 90 3.0 10.0 0.06 0.28 0.10 87 1013.8
20210411231709 41 61 4.0 9.0 0.06 0.28 0.10 87 1013.8
20210411231236 42 107 4.0 9.0 0.07 0.28 0.10 87 1013.3
20210411230704 42 91 3.0 5.0 0.08 0.27 0.09 87 1013.7
20210411230219 42 105 2.0 5.0 0.09 0.27 0.09 87 1013.9
20210411225920 42 53 2.0 5.0 0.09 0.26 0.09 87 1013.8
20210411225541 42 90 2.0 5.0 0.10 0.25 0.08 87 1013.3
20210411224705 43 63 1.0 4.0 0.10 0.24 0.07 87 1013.3
20210411224220 43 52 1.0 3.0 0.12 0.24 0.07 87 1013.6
20210411223705 43 96 1.0 3.0 0.13 0.24 0.06 87 1013.3
20210411223326 43 96 0.0 3.0 0.13 0.23 0.06 87 1013.3
20210411223116 43 101 0.0 3.0 0.16 0.23 0.06 87 1013.5
20210411222857 43 101 0.0 3.0 0.16 0.22 0.05 87 1013.6
20210411221741 44 101 1.0 3.0 0.16 0.21 0.04 87 1013.2
20210411221206 44 101 1.0 5.0 0.15 0.20 0.02 86 1013.3
20210411220710 44 313 0.0 5.0 0.15 0.19 0.02 87 1013.5
20210411220521 44 304 1.0 5.0 0.14 0.17 0.17 86 1013.5
20210411215953 44 303 1.0 4.0 0.13 0.16 0.16 86 1013.5
20210411215650 44 329 1.0 5.0 0.13 0.15 0.15 86 1013.2
20210411214721 45 53 1.0 5.0 0.12 0.13 0.13 86 1012.9
20210411214204 46 84 1.0 6.0 0.11 0.13 0.12 85 1012.9
20210411213704 46 80 1.0 6.0 0.09 0.10 0.10 86 1013.0
20210411213309 47 22 2.0 6.0 0.06 0.08 0.08 85 1013.2
20210411213024 47 346 1.0 4.0 0.06 0.07 0.07 86 1012.9
20210411212603 47 260 1.0 3.0 0.05 0.06 0.06 86 1012.7
20210411211705 48 260 0.0 2.0 0.04 0.06 0.06 86 1012.6
20210411211216 48 260 0.0 4.0 0.03 0.05 0.05 85 1012.6